SCP
0 0 0 0 0 0 0 0 0 0 0 0 0 1 0 0 0 0 0 1 0 0 0 0 0 0 1 1 1 0 0 0 0 1 1 2 2 3
0 0 0 0 0 0 0 0 0 0 0 0 0 0 1 0 0 0 0 0 0 0 0 0 0 0 0 1 0 0 0 0 0 0 1 1 2 2
0 0 0 0 0 0 0 0 0 0 0 0 0 0 0 0 0 0 0 0 0 0 0 0 0 0 0 0 0 0 0 0 0 0 0 1 1 1
0 0 0 0 0 0 0 0 0 0 0 0 0 0 0 0 0 0 0 0 0 0 0 0 0 0 0 0 0 0 0 0 0 0 0 0 0 0
0 0 0 0 0 0 0 0 0 0 0 0 0 0 0 0 0 0 0 0 0 0 0 0 0 0 0 0 0 0 0 0 0 0 0 0 0 0
0 0 0 0 0 0 0 0 0 0 0 0 0 0 0 0 0 0 0 0 0 0 0 0 0 0 0 0 0 0 0 0 0 0 0 0 0 0
0 0 0 0 0 0 0 0 0 0 0 0 0 0 0 0 0 0 0 0 0 0 0 0 0 0 0 0 0 0 0 0 0 0 0 0 0 0
0 0 0 0 0 0 0 0 0 0 0 0 0 0 0 0 0 0 0 0 0 0 0 0 0 0 0 0 0 0 0 0 0 0 0 0 0 0
0 0 0 0 0 0 0 0 0 0 0 0 0 0 0 0 0 0 0 0 0 0 0 0 0 0 0 0 0 0 0 0 0 0 0 0 0 0
0 0 0 0 0 0 0 0 0 0 0 0 0 0 0 0 0 0 0 0 0 0 0 0 0 0 0 0 0 0 0 0 0 0 0 0 0 0
0 0 0 0 0 0 0 0 0 0 0 0 0 0 0 0 0 0 0 0 0 0 0 0 0 0 0 0 0 0 0 0 0 0 0 0 0 0
0 0 0 0 0 0 0 0 0 0 0 0 0 0 0 0 0 0 0 0 0 0 0 0 0 0 0 0 0 0 0 0 0 0 0 0 0 0
0 0 0 0 0 0 0 0 0 0 0 0 0 0 0 0 0 0 0 0 0 0 0 0 0 0 0 0 0 0 0 0 0 0 0 0 0 0
0 0 0 0 0 0 0 0 0 0 0 0 0 0 0 0 0 0 0 0 0 0 0 0 0 0 0 0 0 0 0 0 0 0 0 0 0 0
0 0 0 0 0 0 0 0 0 0 0 0 0 0 0 0 0 0 0 0 0 0 0 0 0 0 0 0 0 0 0 0 0 0 0 0 0 0
0 0 0 0 0 0 0 0 0 0 0 0 0 0 0 0 0 0 0 0 0 0 0 0 0 0 0 0 0 0 0 0 0 0 0 0 0 0
0 0 0 0 0 0 0 0 0 0 0 0 0 0 0 0 0 0 0 0 0 0 0 0 0 0 0 0 0 0 0 0 0 0 0 0 0 0
0 0 0 0 0 0 0 0 0 0 0 0 0 0 0 0 0 0 0 0 0 0 0 0 0 0 0 0 0 0 0 0 0 0 0 0 0 0
0 0 0 0 0 0 0 0 0 0 0 0 0 0 0 0 0 0 0 0 0 0 0 0 0 0 0 0 0 0 0 0 0 0 0 0 0 0
0 0 0 0 0 0 0 0 0 0 0 0 0 0 0 0 0 0 0 0 0 0 0 0 0 0 0 0 0 0 0 0 0 0 0 0 0 0
0 0 0 0 0 0 0 0 0 0 0 0 0 0 0 0 0 0 0 0 0 0 0 0 0 0 0 0 0 0 0 0 0 0 0 0 0 0
0 0 0 0 0 0 0 0 0 0 0 0 0 0 0 0 0 0 0 0 0 0 0 0 0 0 0 0 0 0 0 0 0 0 0 0 0 0
0 0 0 0 0 0 0 0 0 0 0 0 0 0 0 0 0 0 0 0 0 0 0 0 0 0 0 0 0 0 0 0 0 0 0 0 0 0
Wind_Speed
3 3 3 3 3 3 3 4 4 6 6 4 3 3 3 3 5 4 5 7 8 8 8 9 9 9 8 9 9 8 8 8 8 8 9 9 9 9
2 3 3 3 3 3 3 3 4 5 6 4 3 3 3 4 6 5 5 8 8 8 8 9 9 8 7 7 7 7 7 7 7 9 9 9 9 9
3 3 3 3 3 2 3 3 3 4 6 5 3 3 4 5 5 4 4 4 5 8 8 9 8 6 6 6 6 5 5 5 6 7 8 8 8 7
4 3 4 3 3 3 3 4 4 4 5 6 4 3 4 4 4 4 4 4 4 7 8 8 7 6 6 5 5 4 4 4 5 5 7 7 6 6
4 3 3 3 3 3 3 4 4 4 4 4 5 3 3 3 3 4 4 3 4 5 6 6 6 5 5 4 4 3 3 3 4 4 5 5 5 5
3 3 3 4 4 3 3 4 4 4 3 3 4 3 3 2 2 3 3 3 3 3 3 4 4 5 5 4 3 3 3 3 3 3 3 3 3 4
3 3 3 4 5 4 3 3 3 2 3 3 3 3 3 2 2 2 3 3 3 1 2 2 2 2 2 3 2 2 2 2 2 2 2 2 3 4
3 3 3 3 4 5 5 4 3 3 3 3 3 4 4 4 3 2 2 2 3 1 1 2 1 1 1 1 1 1 1 1 2 2 2 2 3 4
2 2 3 3 4 2 3 4 4 4 4 4 4 5 4 4 3 3 2 2 3 2 1 2 1 1 1 1 1 0 1 1 1 1 2 2 2 3
2 2 2 3 3 2 2 2 2 3 3 3 3 4 4 3 2 2 2 2 2 1 0 1 1 1 1 1 0 0 1 1 1 2 2 2 2 3
2 2 2 2 4 4 3 2 3 3 4 4 4 4 5 4 2 1 1 1 2 1 0 0 0 1 1 1 1 1 1 1 2 2 2 2 2 2
2 2 4 4 3 4 2 2 3 3 3 3 3 4 3 2 2 2 2 2 1 1 1 0 0 1 1 1 1 0 1 1 2 2 2 2 3 1
2 2 2 4 5 5 4 2 3 3 2 2 2 2 2 1 1 1 1 2 2 1 1 0 0 0 0 1 2 1 0 1 1 2 2 3 3 2
2 1 2 4 6 6 4 4 4 4 1 1 1 2 2 2 2 2 1 1 1 2 1 1 1 1 0 1 1 1 1 1 1 1 1 2 3 3
2 3 4 5 5 4 5 5 4 2 1 1 2 2 2 2 2 1 1 1 1 1 1 2 2 1 1 1 1 1 1 1 1 1 1 1 1 1
2 2 4 5 4 4 4 3 2 2 1 2 2 2 2 1 1 1 1 1 1 1 1 1 1 2 1 1 1 1 1 1 1 1 1 1 1 1
1 1 1 2 2 2 2 2 2 2 2 2 1 1 2 2 1 1 1 0 0 1 1 1 1 0 1 1 1 1 1 1 2 1 1 1 1 1
2 2 2 2 2 2 2 3 2 2 2 2 2 1 1 1 1 1 0 0 0 1 1 1 0 1 1 1 1 1 1 1 1 1 1 1 2 2
2 1 1 2 2 2 2 2 2 2 2 2 2 1 1 1 1 0 1 0 0 1 1 1 1 1 1 1 2 1 1 1 1 1 1 1 1 2
2 1 1 2 2 2 2 3 2 2 2 2 2 1 1 1 1 0 0 0 0 1 1 1 1 1 0 1 1 2 2 1 0 1 1 1 1 2
3 2 2 2 2 2 3 3 2 2 2 2 1 1 1 1 1 1 0 1 1 1 1 1 1 1 0 1 1 2 2 3 2 0 0 1 2 2
3 3 3 3 2 2 2 2 2 2 2 1 1 1 1 1 1 0 0 0 0 0 0 1 1 1 1 1 1 1 2 3 4 5 4 2 0 0
3 3 3 3 3 2 2 2 2 2 2 2 1 1 1 1 1 1 0 0 0 1 1 1 1 1 1 1 1 1 2 3 2 3 3 5 4 2
Wind_Direction
251 253 252 257 252 252 247 243 248 272 276 271 273 279 282 274 277 269 266 273 274 271 272 272 270 261 259 260 254 259 267 269 266 272 268 269 277 283
261 251 254 247 248 254 252 257 249 257 271 267 265 275 280 285 285 274 269 281 280 279 276 273 268 259 256 261 252 254 257 263 261 262 269 269 278 287
273 258 262 255 245 251 256 257 258 253 269 281 269 268 271 279 288 280 273 267 270 277 277 275 265 261 258 263 255 252 250 258 262 264 272 271 280 283
265 263 270 273 259 247 250 254 258 256 259 279 281 272 269 270 275 279 280 274 267 276 275 275 266 266 260 263 248 243 244 256 261 270 282 277 278 282
263 260 271 272 274 265 255 254 260 262 260 265 278 275 272 279 284 283 279 275 277 282 277 275 269 272 263 251 245 250 250 250 254 269 287 285 290 294
274 270 269 264 263 262 263 260 261 262 261 260 272 281 278 271 266 279 295 292 287 294 289 292 293 284 274 255 255 255 248 248 249 257 281 302 304 306
288 277 274 278 277 272 271 261 258 258 260 265 272 280 282 278 277 276 281 297 296 274 291 296 291 265 248 250 256 259 244 231 231 252 267 289 303 309
283 292 293 289 288 291 291 286 280 269 271 278 281 275 282 282 287 284 282 291 292 312 310 302 300 273 258 224 239 218 215 240 254 260 261 279 298 306
287 298 305 305 310 298 304 311 314 307 284 272 279 280 278 274 269 271 275 277 279 298 332 291 296 285 313 314 309 271 277 268 269 284 296 304 308 304
294 283 286 299 303 308 307 313 310 308 301 290 285 288 288 273 249 251 256 284 297 310 230 263 300 306 313 283 305 69 34 357 333 326 326 330 318 306
308 305 306 294 309 320 318 316 319 322 328 320 313 313 312 308 295 281 270 263 293 296 267 222 318 338 312 291 309 14 3 345 337 340 344 338 325 313
310 305 313 321 323 327 321 308 308 314 324 332 334 336 331 327 314 273 254 253 265 284 301 67 82 30 331 315 318 317 347 345 343 342 339 339 336 330
311 314 324 339 335 332 327 320 318 317 317 320 323 336 338 336 326 296 260 232 233 245 269 277 279 62 260 311 317 316 335 314 305 313 319 329 334 343
297 305 323 337 337 339 341 349 341 333 329 332 326 329 328 326 318 306 292 250 231 243 244 230 238 228 247 291 298 319 320 296 287 302 307 325 330 329
323 335 342 343 341 348 358 353 343 343 348 336 324 319 322 319 319 331 348 360 351 304 269 247 237 243 230 245 264 292 317 315 306 310 326 326 312 320
342 356 358 358 357 354 351 351 345 343 336 316 315 322 330 334 331 336 339 340 355 343 332 284 243 214 235 251 219 272 298 286 311 318 311 317 318 307
2 32 21 5 4 356 348 345 345 347 342 329 326 328 332 334 332 337 333 337 347 329 344 3 4 5 231 232 235 266 288 295 293 311 325 319 311 303
21 29 11 355 346 340 335 338 342 342 334 329 330 322 320 319 317 328 7 76 355 329 342 358 16 25 29 7 270 240 282 288 304 324 323 297 318 327
34 20 350 336 333 331 331 328 329 332 331 332 340 336 330 327 328 350 11 24 29 9 346 348 13 31 42 356 349 353 278 293 325 342 334 316 300 316
15 359 339 331 333 333 331 327 325 333 342 345 349 350 344 342 356 4 360 356 23 22 10 7 7 351 260 265 311 330 332 286 280 324 331 333 333 329
356 351 342 336 333 331 328 323 324 328 337 347 351 353 346 347 354 354 349 27 51 67 33 344 328 352 84 82 53 357 351 357 6 345 327 341 347 6
348 346 341 335 330 326 326 324 326 332 340 346 341 345 343 340 344 348 28 78 68 82 39 339 349 28 54 75 67 1 355 360 20 31 30 32 34 19
342 340 335 331 332 331 331 330 332 335 342 340 339 338 335 342 350 0 11 86 105 102 95 51 26 39 52 78 73 41 27 17 19 30 22 19 26 8